Tracking 20624 objects as of 28-Mar-2020
HD Live streaming from Space Station
objects crossing your sky now

METEOR 2-17 DEB

Track METEOR 2-17 DEB now!
10-day predictions


NORAD ID: 31397
Int'l Code: 1988-005S
Perigee: 924.0 km
Apogee: 931.5 km
Inclination: 82.5 °
Period: 103.4 minutes
Semi major axis: 7298 km
RCS: 0.0107 m2 (small)
Launch date: January 30, 1988
Source: Commonwealth of Independent States (former USSR) (CIS)
Launch site: PLESETSK MISSILE AND SPACE COMPLEX (PKMTR)

Note: This is SATELLITE DEBRIS
aabbcc
Your satellite tracking list
Your tracking list is empty




NASA's NSSDC Master Catalog

Two Line Element Set (TLE):
1 31397U 88005S   20087.39445698 +.00000792 +00000-0 +60550-3 0  9996
2 31397 082.5397 312.8474 0005152 282.3538 196.2434 13.92297997672992
Source of the keplerian elements: AFSPC